Year,Month,Day,Hour,Minute,Value (Times are PST for temperature in C)
2020,03,15,00,00,-0.80
2020,03,15,00,01,-0.80
2020,03,15,00,02,-0.90
2020,03,15,00,03,-0.90
2020,03,15,00,04,-1.00
2020,03,15,00,05,-1.10
2020,03,15,00,06,-1.20
2020,03,15,00,07,-1.20
2020,03,15,00,08,-1.30
2020,03,15,00,09,-1.40
2020,03,15,00,10,-1.40
2020,03,15,00,11,-1.50
2020,03,15,00,12,-1.50
2020,03,15,00,13,-1.60
2020,03,15,00,14,-1.60
2020,03,15,00,15,-1.70
2020,03,15,00,16,-1.70
2020,03,15,00,17,-1.80
2020,03,15,00,18,-1.80
2020,03,15,00,19,-1.80
2020,03,15,00,20,-1.80
2020,03,15,00,21,-1.80
2020,03,15,00,22,-1.80
2020,03,15,00,23,-1.80
2020,03,15,00,24,-1.80
2020,03,15,00,25,-1.80
2020,03,15,00,26,-1.90
2020,03,15,00,27,-1.90
2020,03,15,00,28,-1.80
2020,03,15,00,29,-1.80
2020,03,15,00,30,-1.80
2020,03,15,00,31,-1.80
2020,03,15,00,32,-1.80
2020,03,15,00,33,-1.90
2020,03,15,00,34,-1.90
2020,03,15,00,35,-1.90
2020,03,15,00,36,-1.90
2020,03,15,00,37,-2.00
2020,03,15,00,38,-2.00
2020,03,15,00,39,-2.10
2020,03,15,00,40,-2.10
2020,03,15,00,41,-2.10
2020,03,15,00,42,-2.10
2020,03,15,00,43,-2.10
2020,03,15,00,44,-2.10
2020,03,15,00,45,-2.10
2020,03,15,00,46,-2.10
2020,03,15,00,47,-2.10
2020,03,15,00,48,-2.10
2020,03,15,00,49,-2.10
2020,03,15,00,50,-2.10
2020,03,15,00,51,-2.10
2020,03,15,00,52,-2.00
2020,03,15,00,53,-1.90
2020,03,15,00,54,-1.90
2020,03,15,00,55,-1.80
2020,03,15,00,56,-1.80
2020,03,15,00,57,-1.80
2020,03,15,00,58,-1.80
2020,03,15,00,59,-1.80
2020,03,15,01,00,-1.80
2020,03,15,01,01,-1.80
2020,03,15,01,02,-1.70
2020,03,15,01,03,-1.70
2020,03,15,01,04,-1.70
2020,03,15,01,05,-1.70
2020,03,15,01,06,-1.70
2020,03,15,01,07,-1.70
2020,03,15,01,08,-1.70
2020,03,15,01,09,-1.70
2020,03,15,01,10,-1.70
2020,03,15,01,11,-1.70
2020,03,15,01,12,-1.70
2020,03,15,01,13,-1.70
2020,03,15,01,14,-1.80
2020,03,15,01,15,-1.80
2020,03,15,01,16,-1.90
2020,03,15,01,17,-1.90
2020,03,15,01,18,-1.90
2020,03,15,01,19,-2.00
2020,03,15,01,20,-2.10
2020,03,15,01,21,-2.10
2020,03,15,01,22,-2.10
2020,03,15,01,23,-2.10
2020,03,15,01,24,-2.10
2020,03,15,01,25,-2.10
2020,03,15,01,26,-2.10
2020,03,15,01,27,-2.10
2020,03,15,01,28,-2.20
2020,03,15,01,29,-2.20
2020,03,15,01,30,-2.20
2020,03,15,01,31,-2.20
2020,03,15,01,32,-2.20
2020,03,15,01,33,-2.20
2020,03,15,01,34,-2.20
2020,03,15,01,35,-2.20
2020,03,15,01,36,-2.20
2020,03,15,01,37,-2.20
2020,03,15,01,38,-2.20
2020,03,15,01,39,-2.20
2020,03,15,01,40,-2.20
2020,03,15,01,41,-2.20
2020,03,15,01,42,-2.20
2020,03,15,01,43,-2.20
2020,03,15,01,44,-2.10
2020,03,15,01,45,-2.20
2020,03,15,01,46,-2.20
2020,03,15,01,47,-2.20
2020,03,15,01,48,-2.20
2020,03,15,01,49,-2.20
2020,03,15,01,50,-2.20
2020,03,15,01,51,-2.20
2020,03,15,01,52,-2.20
2020,03,15,01,53,-2.20
2020,03,15,01,54,-2.30
2020,03,15,01,55,-2.30
2020,03,15,01,56,-2.30
2020,03,15,01,57,-2.30
2020,03,15,01,58,-2.30
2020,03,15,01,59,-2.30
2020,03,15,02,00,-2.30
2020,03,15,02,01,-2.30
2020,03,15,02,02,-2.30
2020,03,15,02,03,-2.30
2020,03,15,02,04,-2.30
2020,03,15,02,05,-2.30
2020,03,15,02,06,-2.30
2020,03,15,02,07,-2.30
2020,03,15,02,08,-2.30
2020,03,15,02,09,-2.30
2020,03,15,02,10,-2.40
2020,03,15,02,11,-2.40
2020,03,15,02,12,-2.40
2020,03,15,02,13,-2.40
2020,03,15,02,14,-2.40
2020,03,15,02,15,-2.40
2020,03,15,02,16,-2.50
2020,03,15,02,17,-2.50
2020,03,15,02,18,-2.50
2020,03,15,02,19,-2.50
2020,03,15,02,20,-2.60
2020,03,15,02,21,-2.60
2020,03,15,02,22,-2.60
2020,03,15,02,23,-2.60
2020,03,15,02,24,-2.60
2020,03,15,02,25,-2.60
2020,03,15,02,26,-2.60
2020,03,15,02,27,-2.60
2020,03,15,02,28,-2.60
2020,03,15,02,29,-2.60
2020,03,15,02,30,-2.50
2020,03,15,02,31,-2.50
2020,03,15,02,32,-2.50
2020,03,15,02,33,-2.40
2020,03,15,02,34,-2.40
2020,03,15,02,35,-2.40
2020,03,15,02,36,-2.40
2020,03,15,02,37,-2.40
2020,03,15,02,38,-2.40
2020,03,15,02,39,-2.40
2020,03,15,02,40,-2.40
2020,03,15,02,41,-2.40
2020,03,15,02,42,-2.40
2020,03,15,02,43,-2.40
2020,03,15,02,44,-2.40
2020,03,15,02,45,-2.40
2020,03,15,02,46,-2.40
2020,03,15,02,47,-2.40
2020,03,15,02,48,-2.40
2020,03,15,02,49,-2.50
2020,03,15,02,50,-2.50
2020,03,15,02,51,-2.50
2020,03,15,02,52,-2.50
2020,03,15,02,53,-2.50
2020,03,15,02,54,-2.50
2020,03,15,02,55,-2.40
2020,03,15,02,56,-2.50
2020,03,15,02,57,-2.40
2020,03,15,02,58,-2.40
2020,03,15,02,59,-2.40
2020,03,15,03,00,-2.40
2020,03,15,03,01,-2.40
2020,03,15,03,02,-2.50
2020,03,15,03,03,-2.50
2020,03,15,03,04,-2.50
2020,03,15,03,05,-2.50
2020,03,15,03,06,-2.50
2020,03,15,03,07,-2.50
2020,03,15,03,08,-2.50
2020,03,15,03,09,-2.50
2020,03,15,03,10,-2.50
2020,03,15,03,11,-2.40
2020,03,15,03,12,-2.40
2020,03,15,03,13,-2.40
2020,03,15,03,14,-2.40
2020,03,15,03,15,-2.40
2020,03,15,03,16,-2.40
2020,03,15,03,17,-2.40
2020,03,15,03,18,-2.40
2020,03,15,03,19,-2.40
2020,03,15,03,20,-2.40
2020,03,15,03,21,-2.40
2020,03,15,03,22,-2.40
2020,03,15,03,23,-2.40
2020,03,15,03,24,-2.40
2020,03,15,03,25,-2.40
2020,03,15,03,26,-2.50
2020,03,15,03,27,-2.40
2020,03,15,03,28,-2.40
2020,03,15,03,29,-2.40
2020,03,15,03,30,-2.40
2020,03,15,03,31,-2.40
2020,03,15,03,32,-2.40
2020,03,15,03,33,-2.40
2020,03,15,03,34,-2.40
2020,03,15,03,35,-2.40
2020,03,15,03,36,-2.40
2020,03,15,03,37,-2.40
2020,03,15,03,38,-2.40
2020,03,15,03,39,-2.30
2020,03,15,03,40,-2.40
2020,03,15,03,41,-2.30
2020,03,15,03,42,-2.40
2020,03,15,03,43,-2.40
2020,03,15,03,44,-2.40
2020,03,15,03,45,-2.40
2020,03,15,03,46,-2.50
2020,03,15,03,47,-2.50
2020,03,15,03,48,-2.50
2020,03,15,03,49,-2.50
2020,03,15,03,50,-2.50
2020,03,15,03,51,-2.60
2020,03,15,03,52,-2.60
2020,03,15,03,53,-2.60
2020,03,15,03,54,-2.50
2020,03,15,03,55,-2.50
2020,03,15,03,56,-2.50
2020,03,15,03,57,-2.50
2020,03,15,03,58,-2.50
2020,03,15,03,59,-2.40
2020,03,15,04,00,-2.50
2020,03,15,04,01,-2.50
2020,03,15,04,02,-2.40
2020,03,15,04,03,-2.40
2020,03,15,04,04,-2.50
2020,03,15,04,05,-2.50
2020,03,15,04,06,-2.50
2020,03,15,04,07,-2.50
2020,03,15,04,08,-2.50
2020,03,15,04,09,-2.50
2020,03,15,04,10,-2.50
2020,03,15,04,11,-2.60
2020,03,15,04,12,-2.60
2020,03,15,04,13,-2.60
2020,03,15,04,14,-2.60
2020,03,15,04,15,-2.60
2020,03,15,04,16,-2.60
2020,03,15,04,17,-2.60
2020,03,15,04,18,-2.60
2020,03,15,04,19,-2.60
2020,03,15,04,20,-2.60
2020,03,15,04,21,-2.60
2020,03,15,04,22,-2.60
2020,03,15,04,23,-2.60
2020,03,15,04,24,-2.60
2020,03,15,04,25,-2.60
2020,03,15,04,26,-2.60
2020,03,15,04,27,-2.60
2020,03,15,04,28,-2.70
2020,03,15,04,29,-2.70
2020,03,15,04,30,-2.70
2020,03,15,04,31,-2.70
2020,03,15,04,32,-2.70
2020,03,15,04,33,-2.70
2020,03,15,04,34,-2.80
2020,03,15,04,35,-2.80
2020,03,15,04,36,-2.80
2020,03,15,04,37,-2.80
2020,03,15,04,38,-2.80
2020,03,15,04,39,-2.80
2020,03,15,04,40,-2.80
2020,03,15,04,41,-2.80
2020,03,15,04,42,-2.90
2020,03,15,04,43,-2.90
2020,03,15,04,44,-2.90
2020,03,15,04,45,-2.90
2020,03,15,04,46,-2.90
2020,03,15,04,47,-2.90
2020,03,15,04,48,-2.90
2020,03,15,04,49,-2.90
2020,03,15,04,50,-3.00
2020,03,15,04,51,-3.00
2020,03,15,04,52,-3.00
2020,03,15,04,53,-3.00
2020,03,15,04,54,-3.10
2020,03,15,04,55,-3.10
2020,03,15,04,56,-3.10
2020,03,15,04,57,-3.10
2020,03,15,04,58,-3.00
2020,03,15,04,59,-3.00
2020,03,15,05,00,-3.00
2020,03,15,05,01,-3.00
2020,03,15,05,02,-3.10
2020,03,15,05,03,-3.10
2020,03,15,05,04,-3.10
2020,03,15,05,05,-3.10
2020,03,15,05,06,-3.10
2020,03,15,05,07,-3.10
2020,03,15,05,08,-3.10
2020,03,15,05,09,-3.10
2020,03,15,05,10,-3.10
2020,03,15,05,11,-3.10
2020,03,15,05,12,-3.10
2020,03,15,05,13,-3.10
2020,03,15,05,14,-3.10
2020,03,15,05,15,-3.10
2020,03,15,05,16,-3.10
2020,03,15,05,17,-3.10
2020,03,15,05,18,-3.20
2020,03,15,05,19,-3.20
2020,03,15,05,20,-3.20
2020,03,15,05,21,-3.20
2020,03,15,05,22,-3.20
2020,03,15,05,23,-3.20
2020,03,15,05,24,-3.20
2020,03,15,05,25,-3.20
2020,03,15,05,26,-3.20
2020,03,15,05,27,-3.20
2020,03,15,05,28,-3.20
2020,03,15,05,29,-3.20
2020,03,15,05,30,-3.20
2020,03,15,05,31,-3.20
2020,03,15,05,32,-3.20
2020,03,15,05,33,-3.20
2020,03,15,05,34,-3.20
2020,03,15,05,35,-3.20
2020,03,15,05,36,-3.20
2020,03,15,05,37,-3.20
2020,03,15,05,38,-3.20
2020,03,15,05,39,-3.20
2020,03,15,05,40,-3.20
2020,03,15,05,41,-3.20
2020,03,15,05,42,-3.20
2020,03,15,05,43,-3.20
2020,03,15,05,44,-3.20
2020,03,15,05,45,-3.20
2020,03,15,05,46,-3.20
2020,03,15,05,47,-3.20
2020,03,15,05,48,-3.20
2020,03,15,05,49,-3.30
2020,03,15,05,50,-3.30
2020,03,15,05,51,-3.30
2020,03,15,05,52,-3.30
2020,03,15,05,53,-3.30
2020,03,15,05,54,-3.30
2020,03,15,05,55,-3.30
2020,03,15,05,56,-3.30
2020,03,15,05,57,-3.30
2020,03,15,05,58,-3.30
2020,03,15,05,59,-3.30
2020,03,15,06,00,-3.30
2020,03,15,06,01,-3.30
2020,03,15,06,02,-3.30
2020,03,15,06,03,-3.30
2020,03,15,06,04,-3.30
2020,03,15,06,05,-3.30
2020,03,15,06,06,-3.30
2020,03,15,06,07,-3.30
2020,03,15,06,08,-3.40
2020,03,15,06,09,-3.30
2020,03,15,06,10,-3.30
2020,03,15,06,11,-3.30
2020,03,15,06,12,-3.40
2020,03,15,06,13,-3.30
2020,03,15,06,14,-3.30
2020,03,15,06,15,-3.40
2020,03,15,06,16,-3.40
2020,03,15,06,17,-3.40
2020,03,15,06,18,-3.40
2020,03,15,06,19,-3.40
2020,03,15,06,20,-3.30
2020,03,15,06,21,-3.30
2020,03,15,06,22,-3.30
2020,03,15,06,23,-3.30
2020,03,15,06,24,-3.30
2020,03,15,06,25,-3.30
2020,03,15,06,26,-3.30
2020,03,15,06,27,-3.30
2020,03,15,06,28,-3.30
2020,03,15,06,29,-3.30
2020,03,15,06,30,-3.30
2020,03,15,06,31,-3.30
2020,03,15,06,32,-3.30
2020,03,15,06,33,-3.30
2020,03,15,06,34,-3.30
2020,03,15,06,35,-3.30
2020,03,15,06,36,-3.30
2020,03,15,06,37,-3.30
2020,03,15,06,38,-3.30
2020,03,15,06,39,-3.30
2020,03,15,06,40,-3.30
2020,03,15,06,41,-3.30
2020,03,15,06,42,-3.30
2020,03,15,06,43,-3.30
2020,03,15,06,44,-3.30
2020,03,15,06,45,-3.30
2020,03,15,06,46,-3.30
2020,03,15,06,47,-3.30
2020,03,15,06,48,-3.40
2020,03,15,06,49,-3.40
2020,03,15,06,50,-3.40
2020,03,15,06,51,-3.40
2020,03,15,06,52,-3.50
2020,03,15,06,53,-3.50
2020,03,15,06,54,-3.50
2020,03,15,06,55,-3.50
2020,03,15,06,56,-3.50
2020,03,15,06,57,-3.60
2020,03,15,06,58,-3.60
2020,03,15,06,59,-3.60
2020,03,15,07,00,-3.60
2020,03,15,07,01,-3.60
2020,03,15,07,02,-3.60
2020,03,15,07,03,-3.60
2020,03,15,07,04,-3.60
2020,03,15,07,05,-3.60
2020,03,15,07,06,-3.60
2020,03,15,07,07,-3.60
2020,03,15,07,08,-3.60
2020,03,15,07,09,-3.60
2020,03,15,07,10,-3.60
2020,03,15,07,11,-3.60
2020,03,15,07,12,-3.60
2020,03,15,07,13,-3.60
2020,03,15,07,14,-3.60
2020,03,15,07,15,-3.60
2020,03,15,07,16,-3.60
2020,03,15,07,17,-3.60
2020,03,15,07,18,-3.60
2020,03,15,07,19,-3.60
2020,03,15,07,20,-3.60
2020,03,15,07,21,-3.60
2020,03,15,07,22,-3.60
2020,03,15,07,23,-3.60
2020,03,15,07,24,-3.60
2020,03,15,07,25,-3.60
2020,03,15,07,26,-3.60
2020,03,15,07,27,-3.60
2020,03,15,07,28,-3.60
2020,03,15,07,29,-3.60
2020,03,15,07,30,-3.60
2020,03,15,07,31,-3.60
2020,03,15,07,32,-3.70
2020,03,15,07,33,-3.70
2020,03,15,07,34,-3.70
2020,03,15,07,35,-3.70
2020,03,15,07,36,-3.70
2020,03,15,07,37,-3.70
2020,03,15,07,38,-3.70
2020,03,15,07,39,-3.70
2020,03,15,07,40,-3.70
2020,03,15,07,41,-3.70
2020,03,15,07,42,-3.70
2020,03,15,07,43,-3.70
2020,03,15,07,44,-3.70
2020,03,15,07,45,-3.70
2020,03,15,07,46,-3.70
2020,03,15,07,47,-3.60
2020,03,15,07,48,-3.60
2020,03,15,07,49,-3.60
2020,03,15,07,50,-3.60
2020,03,15,07,51,-3.60
2020,03,15,07,52,-3.60
2020,03,15,07,53,-3.60
2020,03,15,07,54,-3.60
2020,03,15,07,55,-3.60
2020,03,15,07,56,-3.60
2020,03,15,07,57,-3.60
2020,03,15,07,58,-3.60
2020,03,15,07,59,-3.60
2020,03,15,08,00,-3.60
2020,03,15,08,01,-3.60
2020,03,15,08,02,-3.60
2020,03,15,08,03,-3.60
2020,03,15,08,04,-3.50
2020,03,15,08,05,-3.50
2020,03,15,08,06,-3.50
2020,03,15,08,07,-3.40
2020,03,15,08,08,-3.40
2020,03,15,08,09,-3.40
2020,03,15,08,10,-3.40
2020,03,15,08,11,-3.30
2020,03,15,08,12,-3.30
2020,03,15,08,13,-3.30
2020,03,15,08,14,-3.30
2020,03,15,08,15,-3.30
2020,03,15,08,16,-3.20
2020,03,15,08,17,-3.20
2020,03,15,08,18,-3.20
2020,03,15,08,19,-3.20
2020,03,15,08,20,-3.20
2020,03,15,08,21,-3.20
2020,03,15,08,22,-3.20
2020,03,15,08,23,-3.10
2020,03,15,08,24,-3.10
2020,03,15,08,25,-3.10
2020,03,15,08,26,-3.10
2020,03,15,08,27,-3.00
2020,03,15,08,28,-3.00
2020,03,15,08,29,-3.00
2020,03,15,08,30,-3.00
2020,03,15,08,31,-3.00
2020,03,15,08,32,-2.90
2020,03,15,08,33,-2.90
2020,03,15,08,34,-2.90
2020,03,15,08,35,-2.90
2020,03,15,08,36,-2.80
2020,03,15,08,37,-2.80
2020,03,15,08,38,-2.80
2020,03,15,08,39,-2.80
2020,03,15,08,40,-2.70
2020,03,15,08,41,-2.70
2020,03,15,08,42,-2.70
2020,03,15,08,43,-2.60
2020,03,15,08,44,-2.60
2020,03,15,08,45,-2.60
2020,03,15,08,46,-2.50
2020,03,15,08,47,-2.50
2020,03,15,08,48,-2.50
2020,03,15,08,49,-2.40
2020,03,15,08,50,-2.40
2020,03,15,08,51,-2.40
2020,03,15,08,52,-2.40
2020,03,15,08,53,-2.30
2020,03,15,08,54,-2.30
2020,03,15,08,55,-2.30
2020,03,15,08,56,-2.20
2020,03,15,08,57,-2.20
2020,03,15,08,58,-2.20
2020,03,15,08,59,-2.20
2020,03,15,09,00,-2.10
2020,03,15,09,01,-2.10
2020,03,15,09,02,-2.00
2020,03,15,09,03,-1.90
2020,03,15,09,04,-1.90
2020,03,15,09,05,-1.90
2020,03,15,09,06,-1.80
2020,03,15,09,07,-1.80
2020,03,15,09,08,-1.80
2020,03,15,09,09,-1.80
2020,03,15,09,10,-1.70
2020,03,15,09,11,-1.60
2020,03,15,09,12,-1.60
2020,03,15,09,13,-1.60
2020,03,15,09,14,-1.60
2020,03,15,09,15,-1.50
2020,03,15,09,16,-1.40
2020,03,15,09,17,-1.40
2020,03,15,09,18,-1.40
2020,03,15,09,19,-1.40
2020,03,15,09,20,-1.30
2020,03,15,09,21,-1.30
2020,03,15,09,22,-1.20
2020,03,15,09,23,-1.20
2020,03,15,09,24,-1.20
2020,03,15,09,25,-1.10
2020,03,15,09,26,-1.00
2020,03,15,09,27,-1.00
2020,03,15,09,28,-0.90
2020,03,15,09,29,-0.90
2020,03,15,09,30,-0.90
2020,03,15,09,31,-0.80
2020,03,15,09,32,-0.80
2020,03,15,09,33,-0.70
2020,03,15,09,34,-0.70
2020,03,15,09,35,-0.60
2020,03,15,09,36,-0.60
2020,03,15,09,37,-0.50
2020,03,15,09,38,-0.50
2020,03,15,09,39,-0.40
2020,03,15,09,40,-0.40
2020,03,15,09,41,-0.30
2020,03,15,09,42,-0.20
2020,03,15,09,43,-0.20
2020,03,15,09,44,-0.10
2020,03,15,09,45,0.00
2020,03,15,09,46,0.10
2020,03,15,09,47,0.10
2020,03,15,09,48,0.20
2020,03,15,09,49,0.30
2020,03,15,09,50,0.40
2020,03,15,09,51,0.40
2020,03,15,09,52,0.50
2020,03,15,09,53,0.60
2020,03,15,09,54,0.70
2020,03,15,09,55,0.70
2020,03,15,09,56,0.80
2020,03,15,09,57,0.80
2020,03,15,09,58,0.80
2020,03,15,09,59,0.80
2020,03,15,10,00,0.90
2020,03,15,10,01,1.10
2020,03,15,10,02,1.10
2020,03,15,10,03,1.10
2020,03,15,10,04,1.10
2020,03,15,10,05,1.10
2020,03,15,10,06,1.20
2020,03,15,10,07,1.30
2020,03,15,10,08,1.40
2020,03,15,10,09,1.40
2020,03,15,10,10,1.40
2020,03,15,10,11,1.40
2020,03,15,10,12,1.40
2020,03,15,10,13,1.40
2020,03,15,10,14,1.50
2020,03,15,10,15,1.70
2020,03,15,10,16,1.80
2020,03,15,10,17,1.90
2020,03,15,10,18,1.90
2020,03,15,10,19,2.00
2020,03,15,10,20,2.00
2020,03,15,10,21,2.00
2020,03,15,10,22,2.00
2020,03,15,10,23,1.90
2020,03,15,10,24,1.80
2020,03,15,10,25,1.80
2020,03,15,10,26,1.80
2020,03,15,10,27,2.00
2020,03,15,10,28,2.10
2020,03,15,10,29,2.20
2020,03,15,10,30,2.30
2020,03,15,10,31,2.30
2020,03,15,10,32,2.40
2020,03,15,10,33,2.40
2020,03,15,10,34,2.40
2020,03,15,10,35,2.40
2020,03,15,10,36,2.40
2020,03,15,10,37,2.40
2020,03,15,10,38,2.40
2020,03,15,10,39,2.40
2020,03,15,10,40,2.30
2020,03,15,10,41,2.30
2020,03,15,10,42,2.20
2020,03,15,10,43,2.20
2020,03,15,10,44,2.20
2020,03,15,10,45,2.20
2020,03,15,10,46,2.20
2020,03,15,10,47,2.30
2020,03,15,10,48,2.40
2020,03,15,10,49,2.50
2020,03,15,10,50,2.60
2020,03,15,10,51,2.70
2020,03,15,10,52,2.80
2020,03,15,10,53,2.80
2020,03,15,10,54,2.90
2020,03,15,10,55,2.90
2020,03,15,10,56,3.00
2020,03,15,10,57,3.00
2020,03,15,10,58,3.00
2020,03,15,10,59,3.10
2020,03,15,11,00,3.10
2020,03,15,11,01,3.10
2020,03,15,11,02,3.10
2020,03,15,11,03,3.10
2020,03,15,11,04,3.10
2020,03,15,11,05,3.10
2020,03,15,11,06,3.10
2020,03,15,11,07,3.00
2020,03,15,11,08,3.00
2020,03,15,11,09,3.10
2020,03,15,11,10,3.10
2020,03,15,11,11,3.10
2020,03,15,11,12,3.20
2020,03,15,11,13,3.30
2020,03,15,11,14,3.40
2020,03,15,11,15,3.60
2020,03,15,11,16,3.60
2020,03,15,11,17,3.70
2020,03,15,11,18,3.60
2020,03,15,11,19,3.60
2020,03,15,11,20,3.50
2020,03,15,11,21,3.50
2020,03,15,11,22,3.60
2020,03,15,11,23,3.60
2020,03,15,11,24,3.50
2020,03,15,11,25,3.50
2020,03,15,11,26,3.50
2020,03,15,11,27,3.40
2020,03,15,11,28,3.30
2020,03,15,11,29,3.20
2020,03,15,11,30,3.20
2020,03,15,11,31,3.20
2020,03,15,11,32,3.30
2020,03,15,11,33,3.30
2020,03,15,11,34,3.20
2020,03,15,11,35,3.20
2020,03,15,11,36,3.30
2020,03,15,11,37,3.30
2020,03,15,11,38,3.40
2020,03,15,11,39,3.50
2020,03,15,11,40,3.50
2020,03,15,11,41,3.50
2020,03,15,11,42,3.50
2020,03,15,11,43,3.50
2020,03,15,11,44,3.40
2020,03,15,11,45,3.30
2020,03,15,11,46,3.40
2020,03,15,11,47,3.50
2020,03,15,11,48,3.50
2020,03,15,11,49,3.50
2020,03,15,11,50,3.40
2020,03,15,11,51,3.50
2020,03,15,11,52,3.60
2020,03,15,11,53,3.60
2020,03,15,11,54,3.70
2020,03,15,11,55,3.80
2020,03,15,11,56,3.80
2020,03,15,11,57,3.80
2020,03,15,11,58,3.80
2020,03,15,11,59,3.80
2020,03,15,12,00,3.80
2020,03,15,12,01,3.80
2020,03,15,12,02,3.80
2020,03,15,12,03,3.80
2020,03,15,12,04,3.70
2020,03,15,12,05,3.60
2020,03,15,12,06,3.60
2020,03,15,12,07,3.60
2020,03,15,12,08,3.70
2020,03,15,12,09,3.70
2020,03,15,12,10,3.80
2020,03,15,12,11,3.80
2020,03,15,12,12,3.80
2020,03,15,12,13,3.80
2020,03,15,12,14,3.80
2020,03,15,12,15,3.80
2020,03,15,12,16,3.90
2020,03,15,12,17,3.80
2020,03,15,12,18,3.90
2020,03,15,12,19,4.00
2020,03,15,12,20,4.20
2020,03,15,12,21,4.30
2020,03,15,12,22,4.30
2020,03,15,12,23,4.30
2020,03,15,12,24,4.30
2020,03,15,12,25,4.30
2020,03,15,12,26,4.30
2020,03,15,12,27,4.30
2020,03,15,12,28,4.30
2020,03,15,12,29,4.20
2020,03,15,12,30,4.20
2020,03,15,12,31,4.20
2020,03,15,12,32,4.20
2020,03,15,12,33,4.30
2020,03,15,12,34,4.30
2020,03,15,12,35,4.20
2020,03,15,12,36,4.20
2020,03,15,12,37,4.30
2020,03,15,12,38,4.20
2020,03,15,12,39,4.20
2020,03,15,12,40,4.10
2020,03,15,12,41,4.20
2020,03,15,12,42,4.20
2020,03,15,12,43,4.20
2020,03,15,12,44,4.20
2020,03,15,12,45,4.20
2020,03,15,12,46,4.10
2020,03,15,12,47,4.10
2020,03,15,12,48,4.00
2020,03,15,12,49,4.00
2020,03,15,12,50,4.00
2020,03,15,12,51,3.90
2020,03,15,12,52,3.80
2020,03,15,12,53,3.90
2020,03,15,12,54,3.90
2020,03,15,12,55,4.00
2020,03,15,12,56,4.10
2020,03,15,12,57,4.10
2020,03,15,12,58,4.10
2020,03,15,12,59,4.10
2020,03,15,13,00,4.20
2020,03,15,13,01,4.20
2020,03,15,13,02,4.20
2020,03,15,13,03,4.30
2020,03,15,13,04,4.30
2020,03,15,13,05,4.30
2020,03,15,13,06,4.30
2020,03,15,13,07,4.30
2020,03,15,13,08,4.40
2020,03,15,13,09,4.50
2020,03,15,13,10,4.60
2020,03,15,13,11,4.50
2020,03,15,13,12,4.40
2020,03,15,13,13,4.40
2020,03,15,13,14,4.40
2020,03,15,13,15,4.50
2020,03,15,13,16,4.60
2020,03,15,13,17,4.70
2020,03,15,13,18,4.70
2020,03,15,13,19,4.70
2020,03,15,13,20,4.70
2020,03,15,13,21,4.70
2020,03,15,13,22,4.70
2020,03,15,13,23,4.70
2020,03,15,13,24,4.70
2020,03,15,13,25,4.80
2020,03,15,13,26,4.80
2020,03,15,13,27,4.80
2020,03,15,13,28,4.80
2020,03,15,13,29,4.90
2020,03,15,13,30,4.90
2020,03,15,13,31,4.90
2020,03,15,13,32,5.00
2020,03,15,13,33,5.10
2020,03,15,13,34,5.10
2020,03,15,13,35,5.00
2020,03,15,13,36,5.10
2020,03,15,13,37,5.20
2020,03,15,13,38,5.20
2020,03,15,13,39,5.30
2020,03,15,13,40,5.30
2020,03,15,13,41,5.30
2020,03,15,13,42,5.40
2020,03,15,13,43,5.40
2020,03,15,13,44,5.50
2020,03,15,13,45,5.60
2020,03,15,13,46,5.60
2020,03,15,13,47,5.60
2020,03,15,13,48,5.60
2020,03,15,13,49,5.60
2020,03,15,13,50,5.60
2020,03,15,13,51,5.70
2020,03,15,13,52,5.70
2020,03,15,13,53,5.70
2020,03,15,13,54,5.70
2020,03,15,13,55,5.70
2020,03,15,13,56,5.80
2020,03,15,13,57,5.90
2020,03,15,13,58,6.00
2020,03,15,13,59,6.00
2020,03,15,14,00,6.00
2020,03,15,14,01,6.00
2020,03,15,14,02,5.90
2020,03,15,14,03,6.00
2020,03,15,14,04,6.00
2020,03,15,14,05,6.10
2020,03,15,14,06,6.10
2020,03,15,14,07,6.20
2020,03,15,14,08,6.30
2020,03,15,14,09,6.30
2020,03,15,14,10,6.40
2020,03,15,14,11,6.50
2020,03,15,14,12,6.50
2020,03,15,14,13,6.50
2020,03,15,14,14,6.50
2020,03,15,14,15,6.50
2020,03,15,14,16,6.40
2020,03,15,14,17,6.40
2020,03,15,14,18,6.40
2020,03,15,14,19,6.50
2020,03,15,14,20,6.60
2020,03,15,14,21,6.60
2020,03,15,14,22,6.70
2020,03,15,14,23,6.70
2020,03,15,14,24,6.80
2020,03,15,14,25,6.80
2020,03,15,14,26,6.90
2020,03,15,14,27,6.90
2020,03,15,14,28,6.90
2020,03,15,14,29,7.00
2020,03,15,14,30,7.00
2020,03,15,14,31,6.90
2020,03,15,14,32,6.80
2020,03,15,14,33,6.80
2020,03,15,14,34,6.70
2020,03,15,14,35,6.70
2020,03,15,14,36,6.80
2020,03,15,14,37,6.90
2020,03,15,14,38,7.00
2020,03,15,14,39,7.10
2020,03,15,14,40,7.20
2020,03,15,14,41,7.20
2020,03,15,14,42,7.30
2020,03,15,14,43,7.30
2020,03,15,14,44,7.30
2020,03,15,14,45,7.40
2020,03,15,14,46,7.40
2020,03,15,14,47,7.40
2020,03,15,14,48,7.50
2020,03,15,14,49,7.50
2020,03,15,14,50,7.50
2020,03,15,14,51,7.60
2020,03,15,14,52,7.60
2020,03,15,14,53,7.70
2020,03,15,14,54,7.70
2020,03,15,14,55,7.70
2020,03,15,14,56,7.70
2020,03,15,14,57,7.70
2020,03,15,14,58,7.70
2020,03,15,14,59,7.70
2020,03,15,15,00,7.80
2020,03,15,15,01,7.80
2020,03,15,15,02,7.80
2020,03,15,15,03,7.80
2020,03,15,15,04,7.80
2020,03,15,15,05,7.80
2020,03,15,15,06,7.90
2020,03,15,15,07,7.90
2020,03,15,15,08,7.90
2020,03,15,15,09,8.00
2020,03,15,15,10,8.00
2020,03,15,15,11,8.00
2020,03,15,15,12,8.10
2020,03,15,15,13,8.20
2020,03,15,15,14,8.30
2020,03,15,15,15,8.30
2020,03,15,15,16,8.30
2020,03,15,15,17,8.30
2020,03,15,15,18,8.10
2020,03,15,15,19,8.10
2020,03,15,15,20,8.10
2020,03,15,15,21,8.20
2020,03,15,15,22,8.20
2020,03,15,15,23,8.20
2020,03,15,15,24,8.20
2020,03,15,15,25,8.10
2020,03,15,15,26,8.00
2020,03,15,15,27,7.90
2020,03,15,15,28,7.80
2020,03,15,15,29,7.80
2020,03,15,15,30,7.80
2020,03,15,15,31,7.80
2020,03,15,15,32,7.90
2020,03,15,15,33,7.90
2020,03,15,15,34,8.00
2020,03,15,15,35,8.10
2020,03,15,15,36,8.10
2020,03,15,15,37,8.20
2020,03,15,15,38,8.20
2020,03,15,15,39,8.20
2020,03,15,15,40,8.10
2020,03,15,15,41,8.10
2020,03,15,15,42,8.10
2020,03,15,15,43,8.00
2020,03,15,15,44,7.90
2020,03,15,15,45,8.00
2020,03,15,15,46,8.00
2020,03,15,15,47,8.10
2020,03,15,15,48,8.20
2020,03,15,15,49,8.20
2020,03,15,15,50,8.20
2020,03,15,15,51,8.20
2020,03,15,15,52,8.30
2020,03,15,15,53,8.40
2020,03,15,15,54,8.50
2020,03,15,15,55,8.60
2020,03,15,15,56,8.60
2020,03,15,15,57,8.70
2020,03,15,15,58,8.60
2020,03,15,15,59,8.50
2020,03,15,16,00,8.40
2020,03,15,16,01,8.40
2020,03,15,16,02,8.50
2020,03,15,16,03,8.50
2020,03,15,16,04,8.60
2020,03,15,16,05,8.50
2020,03,15,16,06,8.50
2020,03,15,16,07,8.50
2020,03,15,16,08,8.50
2020,03,15,16,09,8.50
2020,03,15,16,10,8.60
2020,03,15,16,11,8.60
2020,03,15,16,12,8.50
2020,03,15,16,13,8.50
2020,03,15,16,14,8.50
2020,03,15,16,15,8.50
2020,03,15,16,16,8.60
2020,03,15,16,17,8.60
2020,03,15,16,18,8.70
2020,03,15,16,19,8.80
2020,03,15,16,20,8.80
2020,03,15,16,21,8.80
2020,03,15,16,22,8.80
2020,03,15,16,23,8.90
2020,03,15,16,24,8.90
2020,03,15,16,25,8.90
2020,03,15,16,26,8.90
2020,03,15,16,27,8.90
2020,03,15,16,28,8.90
2020,03,15,16,29,9.00
2020,03,15,16,30,8.90
2020,03,15,16,31,8.90
2020,03,15,16,32,8.90
2020,03,15,16,33,9.00
2020,03,15,16,34,9.00
2020,03,15,16,35,9.10
2020,03,15,16,36,9.10
2020,03,15,16,37,9.20
2020,03,15,16,38,9.20
2020,03,15,16,39,9.20
2020,03,15,16,40,9.20
2020,03,15,16,41,9.20
2020,03,15,16,42,9.20
2020,03,15,16,43,9.30
2020,03,15,16,44,9.30
2020,03,15,16,45,9.30
2020,03,15,16,46,9.20
2020,03,15,16,47,9.20
2020,03,15,16,48,9.20
2020,03,15,16,49,9.20
2020,03,15,16,50,9.20
2020,03,15,16,51,9.30
2020,03,15,16,52,9.30
2020,03,15,16,53,9.30
2020,03,15,16,54,9.30
2020,03,15,16,55,9.30
2020,03,15,16,56,9.40
2020,03,15,16,57,9.40
2020,03,15,16,58,9.40
2020,03,15,16,59,9.30
2020,03,15,17,00,9.30
2020,03,15,17,01,9.30
2020,03,15,17,02,9.30
2020,03,15,17,03,9.30
2020,03,15,17,04,9.30
2020,03,15,17,05,9.30
2020,03,15,17,06,9.30
2020,03,15,17,07,9.30
2020,03,15,17,08,9.30
2020,03,15,17,09,9.20
2020,03,15,17,10,9.10
2020,03,15,17,11,9.00
2020,03,15,17,12,9.00
2020,03,15,17,13,9.00
2020,03,15,17,14,9.00
2020,03,15,17,15,9.00
2020,03,15,17,16,9.10
2020,03,15,17,17,9.20
2020,03,15,17,18,9.30
2020,03,15,17,19,9.30
2020,03,15,17,20,9.40
2020,03,15,17,21,9.40
2020,03,15,17,22,9.40
2020,03,15,17,23,9.40
2020,03,15,17,24,9.40
2020,03,15,17,25,9.40
2020,03,15,17,26,9.40
2020,03,15,17,27,9.40
2020,03,15,17,28,9.40
2020,03,15,17,29,9.50
2020,03,15,17,30,9.50
2020,03,15,17,31,9.50
2020,03,15,17,32,9.50
2020,03,15,17,33,9.50
2020,03,15,17,34,9.60
2020,03,15,17,35,9.50
2020,03,15,17,36,9.50
2020,03,15,17,37,9.40
2020,03,15,17,38,9.40
2020,03,15,17,39,9.40
2020,03,15,17,40,9.50